[[{"header":{"parameterUnit":"m.s-1","parameterCategory":1,"la1":30.2991,"la2":30.254,"lo1":-89.0895,"lo2":-89.0444,"dy":0.0017,"dx":0.0017,"nx":28,"ny":28,"refTime":"2023-06-27T21:00:00:Z","depth":0,"parameterNumber":2,"parameterNumberName":"U-component_of_WINDS"},"data":[0,0,0,0,0,0,0,0,0,0,0,0,0,0,0,0,0,0,0,0,0,0,0,0,0,0,0,0,0,0,0,0,0,0,0,0,0,0,0,0,0,0,0,0,0,0,0,0,0,0,0,0,0,0,0,0,0,0,0.1696,0.1696,0,0.1694,0.1694,0.1694,0.1684,0.1684,0.1684,0.1684,0.1683,0.1684,0.1684,0,0,0,0,0,0,0,0,0,0,0,0,0,0.1696,0.1696,0.1696,0.1696,0.1696,0.1694,0.1694,0.1694,0.1684,0.1684,0.1684,0.1684,0.1683,0.1684,0.1684,0,0,0,0,0,0,0,0,0,0,0,0,0,0.1695,0.1696,0.1696,0.1691,0.1691,0.1694,0.1694,0.1694,0.1684,0.1684,0.1684,0.1683,0.1683,0.1684,0.1684,0.1692,0,0,0.1685,0.1685,0,0,0,0,0,0,0,0,0.1695,0.1695,0.1692,0.1691,0.1691,0.1689,0.1694,0.1693,0.1684,0.1687,0.1684,0.1683,0.1686,0.1686,0.1686,0.1692,0.1692,0.1685,0.1685,0.1685,0.1685,0,0,0,0,0,0,0,0.1695,0.1695,0.1695,0.1692,0.1691,0.169,0.169,0.1694,0.1688,0.1687,0.1686,0.1686,0.1685,0.1686,0.1686,0.1692,0.1685,0.1685,0.1685,0.1685,0.1709,0.1709,0,0,0,0,0,0,0.1696,0.1695,0.1695,0.1695,0.1692,0.169,0.169,0.169,0.1688,0.1687,0.1686,0.1685,0.1685,0.1686,0.1686,0.1698,0.1685,0.1685,0.1686,0.1709,0.1709,0.171,0,0,0,0,0,0,0.1696,0.1696,0.1695,0.1695,0.1695,0.1691,0.1691,0.169,0.1691,0.1688,0.1687,0.1687,0.1685,0.1686,0.1691,0.1698,0.1686,0.1686,0.1708,0.1709,0.1709,0.1721,0,0,0,0,0,0,0.1696,0.1696,0.1698,0.1695,0.1695,0.17,0.1691,0.169,0.1691,0.169,0.1689,0.1688,0.1685,0.1691,0.1692,0.1698,0.1686,0.1707,0.1708,0.1709,0.172,0.1722,0.1723,0,0,0,0,0,0.1696,0.1701,0.1698,0.1698,0.1698,0.17,0.17,0.1696,0.1691,0.1694,0.1693,0.1688,0.1697,0.1692,0.1692,0.1699,0.1707,0.1708,0.1709,0.1719,0.1721,0.1723,0,0,0,0,0,0,0.1705,0.1701,0.1697,0.1702,0.1701,0.1698,0.1702,0.1698,0.1699,0.1699,0.1694,0.1694,0.1701,0.17,0.1695,0.1709,0.1701,0.1703,0.1709,0.1711,0.1713,0.1713,0.1686,0,0,0,0,0,0.1707,0.1709,0.1705,0.171,0.171,0.1706,0.1707,0.1704,0.1704,0.1704,0.1702,0.1703,0.1706,0.1708,0.1711,0.172,0.1721,0.1725,0.1727,0.1728,0.1729,0.1737,0.1739,0.1713,0.1713,0.1713,0,0,0.1713,0.171,0.1712,0.1712,0.1711,0.1714,0.1706,0.1709,0.1712,0.1704,0.171,0.1709,0.171,0.1718,0.1722,0.1718,0.1737,0.1729,0.173,0.1731,0.1738,0.1741,0.1743,0.1714,0.1713,0.1713,0,0,0.1724,0.1722,0.1726,0.1726,0.1725,0.1723,0.1724,0.1722,0.1722,0.1727,0.1723,0.1727,0.1731,0.1733,0.1734,0.1749,0.1746,0.175,0.176,0.1767,0.1769,0.1771,0.1778,0.1781,0.1751,0.1751,0.1751,0,0.1731,0.1734,0.1729,0.1733,0.1734,0.1727,0.1733,0.1733,0.1734,0.1736,0.1731,0.1739,0.1739,0.1749,0.1752,0.1753,0.1756,0.175,0.1769,0.1771,0.1773,0.178,0.1782,0.1752,0.1752,0.1752,0.1752,0,0.1743,0.1746,0.175,0.1751,0.1752,0.1757,0.1754,0.1757,0.1754,0.1753,0.1761,0.1761,0.1764,0.1766,0.1763,0.1776,0.1774,0.177,0.1762,0.1776,0.1783,0.1785,0.1753,0.1753,0.1753,0.1752,0,0,0.1759,0.1758,0.176,0.1761,0.1761,0.1764,0.177,0.1773,0.1776,0.1778,0.1784,0.1789,0.1786,0.1787,0.1785,0.1791,0.1806,0.1786,0.1786,0.1791,0.1823,0.1828,0.1831,0.1803,0.1804,0.1804,0.1824,0,0.1771,0.1779,0.1776,0.1786,0.179,0.1785,0.179,0.1792,0.1792,0.1796,0.1796,0.1801,0.1795,0.1796,0.1802,0.1803,0.1813,0.1801,0.1811,0.1811,0.1812,0.1834,0.1838,0.1857,0.1826,0.1827,0.1827,0,0.1785,0.1788,0.1798,0.18,0.1801,0.1806,0.181,0.1814,0.1817,0.1816,0.182,0.1817,0.1825,0.1817,0.1829,0.1821,0.1826,0.1827,0.1828,0.1829,0.1821,0.1838,0.1862,0.1866,0.1831,0.183,0.183,0,0.1798,0.1804,0.1811,0.1812,0.1814,0.1818,0.1819,0.1821,0.1824,0.1829,0.1831,0.1836,0.184,0.1845,0.1845,0.1838,0.1858,0.1849,0.186,0.186,0.1864,0.1864,0.1891,0.1865,0.1865,0.1864,0.1864,0,0.1812,0.1819,0.1817,0.1822,0.183,0.1827,0.1836,0.1837,0.184,0.1846,0.1842,0.1848,0.1847,0.1854,0.1854,0.1865,0.1866,0.1868,0.1868,0.1869,0.1869,0.1872,0.1872,0.1865,0.1865,0.1865,0.1865,0,0.1827,0.1826,0.1834,0.1836,0.1837,0.1843,0.1845,0.1851,0.1851,0.1859,0.1861,0.1862,0.187,0.187,0.1879,0.188,0.1895,0.1892,0.1894,0.1894,0.1905,0.1905,0.1936,0.1941,0.1909,0.191,0.191,0,0.1837,0.1842,0.1845,0.1849,0.185,0.1856,0.186,0.1858,0.1863,0.1868,0.1874,0.1881,0.1888,0.1901,0.1904,0.1912,0.1911,0.1922,0.1912,0.1914,0.1914,0.1914,0.1916,0.1924,0.1924,0.1924,0.1924,0,0.1855,0.1854,0.1859,0.1865,0.187,0.1874,0.1878,0.1882,0.1881,0.1887,0.1895,0.19,0.191,0.1919,0.1928,0.1931,0.1929,0.1927,0.1931,0.1932,0.1934,0.1936,0.19,0.1927,0.1927,0.1926,0.1926,0.1926,0.1868,0.1874,0.1877,0.1884,0.1887,0.1892,0.1898,0.19,0.1906,0.1915,0.1914,0.1924,0.193,0.1941,0.1945,0.1954,0.1951,0.1955,0.1956,0.1957,0.196,0.1931,0.1955,0.1955,0.1955,0.1955,0.1955,0,0.1887,0.189,0.1896,0.1903,0.1909,0.1906,0.1911,0.1917,0.1925,0.1931,0.1938,0.1949,0.1958,0.1962,0.1972,0.1979,0.1979,0.1982,0.1982,0.1984,0.1961,0.1958,0.1983,0.1983,0.1983,0.1983,0.1983,0.1983,0.1898,0.1908,0.1909,0.1922,0.1925,0.1934,0.1938,0.1944,0.1948,0.1961,0.1969,0.1971,0.1977,0.1988,0.1998,0.1999,0.2004,0.2008,0.2009,0.1988,0.1985,0.1982,0.198,0.2008,0.2008,0.2031,0.2031,0.2031]},{"header":{"parameterUnit":"m.s-1","parameterCategory":1,"la1":30.2991,"la2":30.254,"lo1":-89.0895,"lo2":-89.0444,"dy":0.0017,"dx":0.0017,"nx":28,"ny":28,"refTime":"2023-06-27T21:00:00:Z","depth":0,"parameterNumber":3,"parameterNumberName":"V-component_of_WINDS"},"data":[0,0,0,0,0,0,0,0,0,0,0,0,0,0,0,0,0,0,0,0,0,0,0,0,0,0,0,0,0,0,0,0,0,0,0,0,0,0,0,0,0,0,0,0,0,0,0,0,0,0,0,0,0,0,0,0,0,0,-2.4569,-2.4569,0,-2.4572,-2.4572,-2.4572,-2.45,-2.4498,-2.4496,-2.4494,-2.4498,-2.45,-2.4502,0,0,0,0,0,0,0,0,0,0,0,0,0,-2.45,-2.4502,-2.4569,-2.4569,-2.4569,-2.4572,-2.4572,-2.4572,-2.45,-2.4497,-2.4495,-2.4493,-2.4498,-2.45,-2.4502,0,0,0,0,0,0,0,0,0,0,0,0,0,-2.4519,-2.4502,-2.4569,-2.4533,-2.453,-2.4572,-2.4572,-2.4572,-2.45,-2.4497,-2.4494,-2.4492,-2.4497,-2.45,-2.4503,-2.4579,0,0,-2.4512,-2.4513,0,0,0,0,0,0,0,0,-2.4518,-2.4522,-2.4538,-2.4536,-2.4532,-2.4532,-2.4549,-2.4574,-2.4501,-2.4512,-2.4494,-2.449,-2.4512,-2.4514,-2.4521,-2.4579,-2.458,-2.4512,-2.4514,-2.4515,-2.4516,0,0,0,0,0,0,0,-2.4517,-2.4521,-2.457,-2.4539,-2.4535,-2.4517,-2.4516,-2.4554,-2.4528,-2.4511,-2.4505,-2.4507,-2.451,-2.4518,-2.452,-2.458,-2.4512,-2.4514,-2.4516,-2.4517,-2.4699,-2.4702,0,0,0,0,0,0,-2.452,-2.4521,-2.457,-2.457,-2.4518,-2.4521,-2.452,-2.4535,-2.4528,-2.4524,-2.4509,-2.4503,-2.4514,-2.4517,-2.452,-2.4608,-2.4515,-2.4517,-2.4519,-2.4696,-2.47,-2.4703,0,0,0,0,0,0,-2.4519,-2.4526,-2.457,-2.4544,-2.4548,-2.4525,-2.4543,-2.4537,-2.4545,-2.4527,-2.4522,-2.4522,-2.4512,-2.4516,-2.4564,-2.4607,-2.4519,-2.4521,-2.4692,-2.4697,-2.4702,-2.4785,0,0,0,0,0,0,-2.4518,-2.4526,-2.4555,-2.4545,-2.455,-2.4614,-2.4545,-2.4539,-2.455,-2.4542,-2.4537,-2.4534,-2.451,-2.456,-2.4567,-2.4609,-2.4524,-2.4689,-2.4695,-2.47,-2.4778,-2.4792,-2.4803,0,0,0,0,0,-2.4515,-2.4579,-2.4556,-2.4563,-2.4586,-2.4617,-2.462,-2.4591,-2.4554,-2.4582,-2.457,-2.4534,-2.4601,-2.4566,-2.4573,-2.4617,-2.4686,-2.4693,-2.47,-2.4773,-2.4789,-2.4803,0,0,0,0,0,0,-2.4595,-2.4577,-2.4552,-2.4614,-2.4617,-2.4605,-2.464,-2.461,-2.4624,-2.4616,-2.458,-2.458,-2.4634,-2.463,-2.4591,-2.4689,-2.4637,-2.4646,-2.469,-2.4705,-2.4718,-2.4717,-2.4526,0,0,0,0,0,-2.4619,-2.4646,-2.4629,-2.4685,-2.4688,-2.4664,-2.4677,-2.4654,-2.4656,-2.4658,-2.4649,-2.4653,-2.4675,-2.469,-2.4709,-2.4777,-2.4775,-2.4811,-2.4823,-2.4834,-2.4841,-2.4876,-2.4891,-2.4726,-2.4726,-2.4726,0,0,-2.4671,-2.4664,-2.4684,-2.4701,-2.4701,-2.4729,-2.4666,-2.4699,-2.4719,-2.4663,-2.4707,-2.4702,-2.4703,-2.4762,-2.4787,-2.476,-2.4886,-2.4842,-2.4851,-2.4853,-2.4884,-2.49,-2.4914,-2.4731,-2.473,-2.4729,0,0,-2.4778,-2.4777,-2.4822,-2.4823,-2.4824,-2.4807,-2.4818,-2.4809,-2.4803,-2.4847,-2.4804,-2.4828,-2.4867,-2.4869,-2.4876,-2.4983,-2.4949,-2.499,-2.5056,-2.509,-2.5103,-2.5114,-2.5151,-2.5165,-2.4998,-2.4998,-2.4998,0,-2.4842,-2.4883,-2.485,-2.4885,-2.4894,-2.4843,-2.4888,-2.4891,-2.4898,-2.4905,-2.4875,-2.4921,-2.4919,-2.4976,-2.5002,-2.5009,-2.502,-2.499,-2.5103,-2.5114,-2.5124,-2.5159,-2.5174,-2.5003,-2.5002,-2.5002,-2.5002,0,-2.4961,-2.499,-2.5027,-2.5033,-2.5046,-2.5087,-2.5059,-2.5076,-2.5052,-2.5039,-2.5083,-2.5079,-2.5095,-2.5107,-2.5085,-2.5161,-2.5144,-2.511,-2.5056,-2.5146,-2.5178,-2.5191,-2.501,-2.5008,-2.5007,-2.5006,0,0,-2.512,-2.5106,-2.512,-2.5122,-2.5118,-2.5139,-2.5177,-2.5192,-2.5207,-2.5213,-2.5243,-2.5276,-2.5243,-2.5251,-2.5228,-2.5258,-2.5341,-2.5219,-2.5218,-2.5241,-2.5424,-2.545,-2.5466,-2.5319,-2.5321,-2.5323,-2.5423,0,-2.5223,-2.5286,-2.5257,-2.5323,-2.5349,-2.53,-2.5332,-2.5333,-2.5321,-2.5341,-2.5328,-2.5351,-2.5307,-2.531,-2.5338,-2.5325,-2.5377,-2.5317,-2.5346,-2.5348,-2.5347,-2.5483,-2.551,-2.5605,-2.5436,-2.5438,-2.5439,0,-2.5353,-2.5363,-2.5432,-2.5421,-2.5431,-2.5461,-2.5471,-2.5491,-2.5491,-2.5479,-2.5487,-2.5457,-2.5492,-2.5439,-2.5488,-2.5448,-2.5458,-2.5453,-2.5456,-2.5457,-2.5399,-2.5487,-2.5635,-2.5649,-2.5459,-2.5457,-2.5456,0,-2.5461,-2.5492,-2.5536,-2.5539,-2.5528,-2.555,-2.5547,-2.5543,-2.5554,-2.5563,-2.5569,-2.5584,-2.5591,-2.5603,-2.5577,-2.5541,-2.5628,-2.5574,-2.562,-2.5621,-2.5641,-2.564,-2.5791,-2.5648,-2.5648,-2.5648,-2.5647,0,-2.5579,-2.5623,-2.5584,-2.5611,-2.5658,-2.5624,-2.5672,-2.5663,-2.566,-2.5685,-2.5643,-2.5668,-2.5632,-2.5653,-2.5633,-2.5675,-2.5679,-2.5671,-2.5665,-2.5674,-2.5675,-2.568,-2.5673,-2.5651,-2.5651,-2.565,-2.5649,0,-2.5708,-2.5683,-2.5728,-2.5713,-2.5711,-2.5746,-2.5733,-2.5758,-2.5742,-2.5774,-2.5779,-2.5755,-2.5777,-2.5752,-2.5773,-2.5759,-2.5816,-2.5801,-2.5816,-2.5812,-2.5859,-2.5855,-2.6019,-2.6039,-2.5884,-2.5885,-2.5886,0,-2.5785,-2.5817,-2.5805,-2.5818,-2.5816,-2.5838,-2.5848,-2.5815,-2.5827,-2.5828,-2.5853,-2.5871,-2.5883,-2.5921,-2.5905,-2.592,-2.5904,-2.5961,-2.5906,-2.5914,-2.5904,-2.5903,-2.5905,-2.5972,-2.5974,-2.5975,-2.5977,0,-2.5924,-2.5909,-2.5925,-2.5936,-2.5949,-2.5956,-2.5961,-2.5974,-2.5939,-2.5955,-2.5976,-2.5986,-2.6006,-2.6024,-2.6034,-2.6031,-2.5998,-2.5994,-2.6005,-2.6015,-2.6022,-2.6018,-2.5846,-2.599,-2.5989,-2.5988,-2.5987,-2.5987,-2.6028,-2.6054,-2.6049,-2.6067,-2.6066,-2.6071,-2.6093,-2.6079,-2.6096,-2.6109,-2.6088,-2.6115,-2.6112,-2.6122,-2.6122,-2.6142,-2.6118,-2.6135,-2.6139,-2.6144,-2.6151,-2.6019,-2.6144,-2.6144,-2.6144,-2.6143,-2.6143,0,-2.6164,-2.6158,-2.6175,-2.6182,-2.6196,-2.6163,-2.6165,-2.618,-2.6203,-2.6203,-2.6216,-2.6239,-2.6257,-2.6242,-2.6256,-2.6275,-2.626,-2.628,-2.6278,-2.6277,-2.6172,-2.616,-2.6291,-2.6291,-2.6291,-2.6291,-2.6291,-2.6291,-2.6237,-2.6278,-2.6263,-2.6303,-2.6296,-2.6321,-2.6325,-2.6329,-2.6328,-2.6356,-2.637,-2.636,-2.6354,-2.6367,-2.6381,-2.6376,-2.6383,-2.6408,-2.6398,-2.6299,-2.6285,-2.6271,-2.626,-2.641,-2.641,-2.6501,-2.6502,-2.6503]}]]